Weather History for Kirksville, MO

Change the Weather History Date:

Wednesday, May 8, 2013

  Actual Average Record
Temperature  
Mean Temperature 62 °F 59 °F  
Max Temperature 75 °F 70 °F 91 °F (1934)
Min Temperature 48 °F 49 °F 31 °F (1980)
Degree Days  
Heating Degree Days 3 7  
Month to date heating degree days 94 62  
Since 1 July heating degree days 5940 5752  
Cooling Degree Days 0 1  
Month to date cooling degree days 0 7  
Year to date cooling degree days 10 14  
Growing Degree Days 10 (Base 50)    
Moisture  
Dew Point 52 °F    
Average Humidity 72    
Maximum Humidity 100    
Minimum Humidity 44    
Precipitation  
Precipitation 0.00 in 0.17 in 1.30 in (1988)
Month to date precipitation 1.11 1.45  
Year to date precipitation 17.08 10.64  
Sea Level Pressure  
Sea Level Pressure 30.00 in    
Wind  
Wind Speed 5 mph (South)    
Max Wind Speed 15 mph    
Max Gust Speed 20 mph    
Visibility 10 miles    
Events      
T = Trace of Precipitation, MM = Missing Value Source: NWS Daily Summary

Daily Weather History Graph

Daily Weather History Graph

Search for Another Location

Airport:

Trip Planner

Search our weather history database for the weather conditions in past years. The results will help you decide how hot, cold, wet, or windy it might be!

Date:

Astronomy

May. 08, 2013 Rise Set
Actual Time 6:01 AM CDT 8:12 PM CDT
Civil Twilight 5:31 AM CDT 8:42 PM CDT
Nautical Twilight 4:54 AM CDT 9:19 PM CDT
Astronomical Twilight 4:14 AM CDT 10:00 PM CDT
Moon 5:09 AM CDT (5/8) 7:11 PM CDT (5/8)
Length of Visible Light 15h 11m
Length of Day
14h 10m
Waning Crescent, 2% of the Moon is Illuminated
May 8
Waning Crescent
May 9
New
May 17
First Quarter
May 24
Full
May 31
Last Quarter

Hourly Weather History & Observations

Time (CDT) Temp. Dew Point Humidity Pressure Visibility Wind Dir Wind Speed Gust Speed Precip Events Conditions
12:55 AM 52.0 °F 48.0 °F 86% 30.01 in 10.0 mi Calm Calm - N/A   Clear
1:55 AM 50.0 °F 48.0 °F 93% 30.01 in 10.0 mi Calm Calm - N/A   Clear
2:55 AM 51.1 °F 48.9 °F 92% 30.00 in 10.0 mi Calm Calm - N/A   Clear
3:55 AM 48.9 °F 48.0 °F 97% 30.01 in 10.0 mi Calm Calm - N/A   Clear
4:55 AM 50.0 °F 48.0 °F 93% 30.01 in 10.0 mi Calm Calm - N/A   Clear
5:55 AM 48.9 °F 46.9 °F 93% 30.02 in 10.0 mi Calm Calm - N/A   Clear
6:55 AM 53.1 °F 48.9 °F 86% 30.03 in 10.0 mi Calm Calm - N/A   Clear
7:55 AM 63.0 °F 55.0 °F 75% 30.03 in 10.0 mi South 3.5 mph - N/A   Clear
8:55 AM 68.0 °F 54.0 °F 61% 30.04 in 10.0 mi SSE 4.6 mph - N/A   Clear
9:55 AM 72.0 °F 54.0 °F 53% 30.03 in 10.0 mi SSE 5.8 mph - N/A   Clear
10:55 AM 73.0 °F 51.1 °F 46% 30.03 in 10.0 mi SSW 9.2 mph - N/A   Mostly Cloudy
11:55 AM 71.1 °F 48.9 °F 45% 30.04 in 10.0 mi SW 6.9 mph - N/A   Overcast
12:55 PM 73.0 °F 52.0 °F 48% 30.03 in 10.0 mi SSW 8.1 mph - N/A   Mostly Cloudy
1:55 PM 73.9 °F 53.1 °F 48% 30.01 in 10.0 mi South 5.8 mph - N/A   Mostly Cloudy
2:55 PM 73.0 °F 55.0 °F 53% 30.01 in 10.0 mi SW 4.6 mph - N/A   Overcast
3:55 PM 73.9 °F 55.0 °F 52% 30.00 in 10.0 mi SW 5.8 mph - N/A   Mostly Cloudy
4:55 PM 73.0 °F 54.0 °F 51% 29.99 in 10.0 mi South 11.5 mph - N/A   Overcast
5:55 PM 71.1 °F 54.0 °F 55% 29.99 in 10.0 mi South 12.7 mph - N/A   Partly Cloudy
6:55 PM 68.0 °F 54.0 °F 61% 29.98 in 10.0 mi South 8.1 mph - N/A   Clear
7:55 PM 66.9 °F 54.0 °F 63% 29.96 in 10.0 mi South 6.9 mph - N/A   Clear
8:55 PM 62.1 °F 54.0 °F 75% 29.97 in 10.0 mi SE 5.8 mph - N/A   Partly Cloudy
9:55 PM 61.0 °F 53.1 °F 75% 29.97 in 10.0 mi SE 4.6 mph - N/A   Clear
10:55 PM 60.1 °F 53.1 °F 78% 29.96 in 10.0 mi SE 5.8 mph - N/A   Scattered Clouds
11:55 PM 61.0 °F 54.0 °F 78% 29.95 in 10.0 mi SE 5.8 mph - N/A   Overcast